Content
SEND FEEDBACK

Daily
Averages
Monthly
Summary
United States of America

UPI, GUAM


Home > North America > United States > Guam
Elevation: 53 feet     Latitude: 13 34N     Longitude: 144 55E

WEATHER
 
SELECT A DAY
Number of Records: 209,285;   Date Range: 1/1/95 - 9/16/14
 
SHARE

PRINT THIS DATA

[ ← Previous Day ]
WEATHER ALMANAC - APRIL 29, 2013
[ Next Day → ]
[ °C ]   °F
Weather ElementAverageHighLow
Temperature84.4 °F89.1 °F (12:54 pm)81 °F (3:54 am)
Dewpoint74 °F75.9 °F (1:54 am)73 °F (11:54 am)
Humidity71.5 %85 % (3:54 am)61 % (12:54 pm)
Barometer29.89 in29.95 in (10:01 am)29.83 in (2:54 pm)
Wind Speed9.8 mph13.8 mph (10:01 am)
Wind Gust20.7 mph (12:54 pm)
Weather ElementAverage
Visibility10 mi
Wind DirectionENE (82.7 °)

Weather ElementTotal
Precipitation0.02 in
Cooling Degree Days20.1 (Base 65)
Growing Degree Days35.1 (Base 50)
Averaged from 26 records on April 29, 2013
WEATHER CONDITIONS BREAKOUT
WIND DIRECTION BREAKOUT
WEATHER BY HOUR - APRIL 29, 2013
[ °C ]   °F
Local TimeTemperatureDewpointHumidityBarometerVisibilityWind DirectionWind SpeedGust SpeedPrecipitationEventsConditions
1:54 AM82.0 °F75.9 °F82 %29.89 in10.0 miENE (70°)9.2 mph0.00 inClear
2:54 AM82.0 °F75.9 °F82 %29.87 in10.0 miENE (60°)9.2 mph0.01 inPartly Cloudy
3:54 AM81.0 °F75.9 °F85 %29.87 in10.0 miENE (70°)9.2 mph0.01 inMostly Cloudy
4:54 AM81.0 °F75.9 °F85 %29.88 in10.0 miEast (80°)6.9 mphPartly Cloudy
5:54 AM81.0 °F75.0 °F82 %29.89 in10.0 miNE (50°)8.1 mphMostly Cloudy
6:54 AM81.0 °F75.0 °F82 %29.89 in10.0 miEast (80°)5.8 mphPartly Cloudy
7:54 AM82.9 °F73.9 °F74 %29.91 in10.0 miEast (100°)6.9 mphClear
8:54 AM84.0 °F73.9 °F72 %29.91 in10.0 miESE (110°)11.5 mphScattered Clouds
9:54 AM86.0 °F73.9 °F67 %29.92 in10.0 miEast (100°)10.4 mphScattered Clouds
10:01 AM84.2 °F73.4 °F70 %29.95 in10.0 miEast (100°)13.8 mph18.4 mphMostly Cloudy
10:13 AM86.0 °F73.4 °F66 %29.94 in10.0 miEast (90°)12.7 mph17.3 mphScattered Clouds
10:54 AM87.1 °F73.9 °F65 %29.91 in10.0 miEast (90°)11.5 mph19.6 mphScattered Clouds
11:54 AM87.1 °F73.0 °F63 %29.91 in10.0 miEast (100°)13.8 mphPartly Cloudy
12:54 PM89.1 °F73.9 °F61 %29.86 in10.0 miEast (80°)12.7 mph20.7 mphScattered Clouds
1:54 PM87.1 °F73.9 °F65 %29.85 in10.0 miEast (100°)13.8 mphScattered Clouds
2:39 PM87.8 °F73.4 °F62 %29.86 in10.0 miEast (90°)13.8 mphMostly Cloudy
2:54 PM88.0 °F73.9 °F63 %29.83 in10.0 miEast (100°)11.5 mph20.7 mphScattered Clouds
3:54 PM88.0 °F73.0 °F61 %29.83 in10.0 miEast (90°)13.8 mphScattered Clouds
4:54 PM87.1 °F73.0 °F63 %29.83 in10.0 miEast (90°)11.5 mphScattered Clouds
5:54 PM86.0 °F73.0 °F65 %29.85 in10.0 miEast (80°)10.4 mphClear
6:54 PM84.0 °F73.9 °F72 %29.88 in10.0 miENE (70°)6.9 mphPartly Cloudy
7:54 PM82.9 °F73.9 °F74 %29.90 in10.0 miEast (80°)6.9 mphPartly Cloudy
8:54 PM82.9 °F73.9 °F74 %29.92 in10.0 miEast (80°)5.8 mphClear
9:54 PM82.9 °F73.0 °F72 %29.94 in10.0 miENE (60°)5.8 mphPartly Cloudy
10:54 PM81.0 °F73.0 °F77 %29.95 in10.0 miENE (60°)5.8 mphClear
11:54 PM82.0 °F73.9 °F76 %29.94 in10.0 miENE (70°)6.9 mphClear
Hourly data recorded from PGUM, located miles away from Upi, Guam







STORIES FROM OUR PARTNERS